• In Moldova, Republic
  • List of Countries
  • For 7 days
  • Water Temperature
  • Satellite Maps
  • Weather Map
  • Weather Widgets
  • user-avatar
    Login

    Hourly Weather Quito

    Today, 25 March, Saturday

    Time Temperature Precipitation Wind Pressure Humidity
    00:00 +14°C° 0 mm 1 mps 622 mmHg 93%
    01:00 +14°C° 0 mm 1 mps 621 mmHg 93%
    02:00 +14°C° 0 mm 1 mps 621 mmHg 94%
    03:00 +14°C° 0 mm 1 mps 621 mmHg 95%
    04:00 +14°C° 0 mm 1 mps 621 mmHg 96%
    05:00 +15°C° 0 mm 1 mps 622 mmHg 94%
    06:00 +16°C° 0 mm 1 mps 622 mmHg 93%
    07:00 +18°C° 0 mm 1 mps 624 mmHg 89%
    08:00 +21°C° 0 mm 1 mps 624 mmHg 79%
    09:00 +23°C° 0 mm 1 mps 625 mmHg 68%
    10:00 +26°C° 0 mm 1 mps 626 mmHg 57%
    11:00 +26°C° 0 mm 1 mps 625 mmHg 53%
    12:00 +27°C° 0 mm 2 mps 625 mmHg 49%
    13:00 +28°C° 0 mm 2 mps 625 mmHg 45%
    14:00 +28°C° 0 mm 2 mps 624 mmHg 46%
    15:00 +27°C° 0 mm 2 mps 624 mmHg 47%
    16:00 +27°C° 0 mm 2 mps 623 mmHg 48%
    17:00 +24°C° 0 mm 2 mps 623 mmHg 60%
    18:00 +21°C° 0 mm 2 mps 622 mmHg 71%
    19:00 +19°C° 0 mm 1 mps 621 mmHg 82%
    20:00 +18°C° 0 mm 1 mps 621 mmHg 84%
    21:00 +18°C° 0 mm 1 mps 622 mmHg 85%
    22:00 +16°C° 0 mm 1 mps 622 mmHg 87%
    23:00 +16°C° 0 mm 1 mps 622 mmHg 87%

    Tomorrow, 26 March, Sunday

    Time Temperature Precipitation Wind Pressure Humidity
    00:00 +15°C° 0 mm 1 mps 622 mmHg 87%
    01:00 +15°C° 0 mm 1 mps 621 mmHg 87%
    02:00 +15°C° 0 mm 1 mps 621 mmHg 88%
    03:00 +15°C° 0 mm 1 mps 621 mmHg 89%
    04:00 +14°C° 0 mm 1 mps 621 mmHg 90%
    05:00 +15°C° 0 mm 1 mps 622 mmHg 88%
    06:00 +16°C° 0 mm 1 mps 623 mmHg 86%
    07:00 +18°C° 0 mm 1 mps 623 mmHg 84%
    08:00 +21°C° 0 mm 1 mps 624 mmHg 73%
    09:00 +24°C° 0 mm 1 mps 626 mmHg 62%
    10:00 +27°C° 0 mm 1 mps 627 mmHg 51%
    11:00 +28°C° 0.1 mm 1 mps 626 mmHg 48%
    12:00 +29°C° 0.1 mm 1 mps 626 mmHg 45%
    13:00 +30°C° 0.1 mm 1 mps 625 mmHg 42%
    14:00 +29°C° 0.1 mm 1 mps 624 mmHg 46%
    15:00 +28°C° 0.1 mm 1 mps 623 mmHg 50%
    16:00 +27°C° 0.1 mm 1 mps 623 mmHg 53%
    17:00 +24°C° 1 mm 1 mps 622 mmHg 63%
    18:00 +22°C° 1 mm 1 mps 622 mmHg 72%
    19:00 +19°C° 1 mm 1 mps 621 mmHg 82%
    20:00 +18°C° 0.6 mm 1 mps 621 mmHg 85%
    21:00 +18°C° 0.6 mm 1 mps 622 mmHg 88%
    22:00 +16°C° 0.6 mm 1 mps 622 mmHg 91%
    23:00 +16°C° 0.5 mm 1 mps 622 mmHg 91%

    Day after tomorrow, 27 March, Monday

    Time Temperature Precipitation Wind Pressure Humidity
    00:00 +16°C° 0.5 mm 1 mps 622 mmHg 92%
    01:00 +16°C° 0.5 mm 1 mps 622 mmHg 92%
    02:00 +16°C° 0.2 mm 1 mps 622 mmHg 93%
    03:00 +16°C° 0.2 mm 1 mps 621 mmHg 94%
    04:00 +16°C° 0.2 mm 1 mps 621 mmHg 95%
    05:00 +16°C° 0 mm 1 mps 622 mmHg 95%
    06:00 +16°C° 0 mm 1 mps 623 mmHg 95%
    07:00 +18°C° 0 mm 1 mps 623 mmHg 95%
    08:00 +19°C° 0.1 mm 2 mps 624 mmHg 86%
    09:00 +21°C° 0.1 mm 3 mps 625 mmHg 77%
    10:00 +24°C° 0.1 mm 3 mps 625 mmHg 68%
    11:00 +25°C° 0.4 mm 3 mps 625 mmHg 65%
    12:00 +26°C° 0.4 mm 3 mps 624 mmHg 62%
    13:00 +27°C° 0.4 mm 3 mps 624 mmHg 59%
    14:00 +26°C° 1 mm 2 mps 623 mmHg 67%
    15:00 +25°C° 1 mm 2 mps 623 mmHg 74%
    16:00 +24°C° 1 mm 2 mps 622 mmHg 82%
    17:00 +21°C° 0.9 mm 2 mps 622 mmHg 86%
    18:00 +21°C° 0.9 mm 1 mps 622 mmHg 90%
    19:00 +19°C° 0.9 mm 1 mps 622 mmHg 94%
    20:00 +19°C° 2.7 mm 1 mps 623 mmHg 95%
    21:00 +19°C° 2.7 mm 1 mps 623 mmHg 95%
    22:00 +16°C° 2.7 mm 0 mps 623 mmHg 95%
    23:00 +16°C° 0.8 mm 0 mps 623 mmHg 95%

    28 March, Tuesday

    Time Temperature Precipitation Wind Pressure Humidity
    00:00 +16°C° 0.8 mm 0 mps 623 mmHg 96%
    01:00 +15°C° 0.8 mm 0 mps 622 mmHg 96%
    02:00 +16°C° 0.5 mm 1 mps 622 mmHg 96%
    03:00 +16°C° 0.5 mm 1 mps 622 mmHg 96%
    04:00 +16°C° 0.5 mm 1 mps 621 mmHg 96%
    05:00 +16°C° 0.3 mm 1 mps 622 mmHg 95%
    06:00 +18°C° 0.3 mm 1 mps 623 mmHg 94%
    07:00 +19°C° 0.3 mm 1 mps 624 mmHg 93%
    08:00 +19°C° 0.3 mm 2 mps 624 mmHg 89%
    09:00 +20°C° 0.3 mm 2 mps 624 mmHg 86%
    10:00 +21°C° 0.3 mm 3 mps 625 mmHg 82%
    11:00 +21°C° 0.2 mm 3 mps 624 mmHg 79%
    12:00 +21°C° 0.2 mm 2 mps 624 mmHg 76%
    13:00 +23°C° 0.2 mm 2 mps 623 mmHg 74%
    14:00 +23°C° 0.1 mm 2 mps 623 mmHg 74%
    15:00 +23°C° 0.1 mm 2 mps 622 mmHg 74%
    16:00 +23°C° 0.1 mm 1 mps 622 mmHg 75%
    17:00 +22°C° 0.1 mm 1 mps 622 mmHg 80%
    18:00 +21°C° 0.1 mm 1 mps 622 mmHg 85%
    19:00 +19°C° 0.1 mm 1 mps 622 mmHg 90%
    20:00 +19°C° 0.4 mm 1 mps 622 mmHg 91%
    21:00 +18°C° 0.4 mm 1 mps 622 mmHg 93%
    22:00 +16°C° 0.4 mm 2 mps 622 mmHg 95%
    23:00 +16°C° 0 mm 1 mps 622 mmHg 95%

    29 March, Wednesday

    Time Temperature Precipitation Wind Pressure Humidity
    00:00 +16°C° 0 mm 1 mps 622 mmHg 96%
    01:00 +15°C° 0 mm 1 mps 621 mmHg 96%
    02:00 +15°C° 0 mm 1 mps 621 mmHg 96%
    03:00 +14°C° 0 mm 1 mps 621 mmHg 96%
    04:00 +14°C° 0 mm 1 mps 621 mmHg 96%
    05:00 +15°C° 0 mm 1 mps 621 mmHg 95%
    06:00 +16°C° 0 mm 1 mps 622 mmHg 93%
    07:00 +16°C° 0 mm 1 mps 623 mmHg 91%
    08:00 +18°C° 0.1 mm 2 mps 624 mmHg 84%
    09:00 +20°C° 0.1 mm 3 mps 624 mmHg 76%
    10:00 +22°C° 0.1 mm 4 mps 625 mmHg 68%
    11:00 +23°C° 0.1 mm 4 mps 624 mmHg 64%
    12:00 +25°C° 0.1 mm 4 mps 624 mmHg 60%
    13:00 +26°C° 0.1 mm 3 mps 623 mmHg 55%
    14:00 +25°C° 0.1 mm 3 mps 623 mmHg 59%
    15:00 +25°C° 0.1 mm 3 mps 622 mmHg 62%
    16:00 +25°C° 0.1 mm 3 mps 622 mmHg 66%
    17:00 +23°C° 0 mm 2 mps 622 mmHg 74%
    18:00 +20°C° 0 mm 2 mps 622 mmHg 82%
    19:00 +19°C° 0 mm 1 mps 621 mmHg 90%
    20:00 +19°C° 0.1 mm 1 mps 622 mmHg 91%
    21:00 +18°C° 0.1 mm 1 mps 622 mmHg 92%
    22:00 +18°C° 0.1 mm 1 mps 622 mmHg 92%
    23:00 +16°C° 0.4 mm 1 mps 622 mmHg 93%

    30 March, Thursday

    Time Temperature Precipitation Wind Pressure Humidity
    00:00 +16°C° 0.4 mm 1 mps 621 mmHg 94%
    01:00 +16°C° 0.4 mm 1 mps 621 mmHg 95%
    02:00 +16°C° 0.5 mm 1 mps 621 mmHg 96%
    03:00 +15°C° 0.5 mm 1 mps 621 mmHg 96%
    04:00 +15°C° 0.5 mm 1 mps 621 mmHg 97%
    05:00 +16°C° 0.3 mm 1 mps 622 mmHg 96%
    06:00 +16°C° 0.3 mm 2 mps 623 mmHg 95%
    07:00 +17°C° 0.3 mm 2 mps 623 mmHg 94%
    08:00 +18°C° 0.2 mm 3 mps 624 mmHg 88%
    09:00 +20°C° 0.2 mm 4 mps 624 mmHg 82%
    10:00 +22°C° 0.2 mm 5 mps 625 mmHg 76%
    11:00 +22°C° 0.3 mm 4 mps 624 mmHg 75%
    12:00 +22°C° 0.3 mm 4 mps 624 mmHg 74%
    13:00 +22°C° 0.3 mm 4 mps 623 mmHg 73%
    14:00 +22°C° 0.2 mm 3 mps 623 mmHg 75%
    15:00 +22°C° 0.2 mm 3 mps 623 mmHg 77%
    16:00 +22°C° 0.2 mm 3 mps 622 mmHg 79%
    17:00 +20°C° 0.1 mm 3 mps 623 mmHg 84%
    18:00 +19°C° 0.1 mm 2 mps 623 mmHg 90%
    19:00 +19°C° 0.1 mm 1 mps 623 mmHg 95%
    20:00 +18°C° 0.2 mm 1 mps 623 mmHg 95%
    21:00 +18°C° 0.2 mm 1 mps 623 mmHg 96%
    22:00 +18°C° 0.2 mm 1 mps 623 mmHg 96%
    23:00 +16°C° 0.3 mm 1 mps 623 mmHg 96%
    Show more